[[{"header":{"parameterUnit":"m.s-1","parameterCategory":1,"la1":30.2991,"la2":30.254,"lo1":-89.0895,"lo2":-89.0444,"dy":0.0017,"dx":0.0017,"nx":28,"ny":28,"refTime":"2024-08-20T09:00:00:Z","depth":0,"parameterNumber":2,"parameterNumberName":"U-component_of_WINDS"},"data":[0,0,0,0,0,0,0,0,0,0,0,0,0,0,0,0,0,0,0,0,0,0,0,0,0,0,0,0,0,0,0,0,0,0,0,0,0,0,0,0,0,0,0,0,0,0,0,0,0,0,0,0,0,0,0,0,0,0,-0.1722,-0.1721,0,-0.1618,-0.1617,-0.1616,-0.1543,-0.1542,-0.1542,-0.1541,-0.1433,-0.1431,-0.1429,0,0,0,0,0,0,0,0,0,0,0,0,0,-0.1855,-0.1852,-0.1722,-0.1721,-0.1719,-0.1618,-0.1617,-0.1615,-0.1543,-0.1542,-0.1542,-0.1541,-0.1434,-0.1431,-0.1428,0,0,0,0,0,0,0,0,0,0,0,0,0,-0.1778,-0.1852,-0.1722,-0.1671,-0.1666,-0.1619,-0.1617,-0.1615,-0.1543,-0.1542,-0.1542,-0.1541,-0.1435,-0.1431,-0.1428,-0.1423,0,0,-0.1417,-0.1416,0,0,0,0,0,0,0,0,-0.1783,-0.1774,-0.168,-0.1675,-0.1668,-0.1593,-0.1624,-0.1551,-0.1543,-0.159,-0.1541,-0.154,-0.1487,-0.1479,-0.1461,-0.1418,-0.1413,-0.1417,-0.1415,-0.1413,-0.1412,0,0,0,0,0,0,0,-0.1788,-0.1778,-0.1681,-0.1679,-0.1671,-0.1652,-0.1641,-0.161,-0.1544,-0.1586,-0.158,-0.1569,-0.1483,-0.1465,-0.1458,-0.1412,-0.1417,-0.1414,-0.1412,-0.141,-0.1356,-0.1357,0,0,0,0,0,0,-0.1802,-0.1783,-0.1684,-0.1678,-0.1725,-0.1651,-0.1638,-0.1618,-0.1544,-0.1532,-0.157,-0.1566,-0.1471,-0.1462,-0.1454,-0.1442,-0.1413,-0.141,-0.1408,-0.1355,-0.1356,-0.1357,0,0,0,0,0,0,-0.1805,-0.1794,-0.1688,-0.1729,-0.1714,-0.1649,-0.1628,-0.1616,-0.1597,-0.1532,-0.152,-0.1563,-0.147,-0.1459,-0.1431,-0.1437,-0.1408,-0.1405,-0.1355,-0.1356,-0.1357,-0.1418,0,0,0,0,0,0,-0.1809,-0.1795,-0.1794,-0.1729,-0.1712,-0.1668,-0.1628,-0.1615,-0.1592,-0.1586,-0.1523,-0.1511,-0.1469,-0.1436,-0.1427,-0.1432,-0.1402,-0.1354,-0.1355,-0.1356,-0.1415,-0.1421,-0.1426,0,0,0,0,0,-0.1814,-0.1815,-0.1794,-0.1782,-0.1708,-0.1668,-0.1658,-0.161,-0.1593,-0.159,-0.1547,-0.1513,-0.1438,-0.1434,-0.1423,-0.1427,-0.1353,-0.1355,-0.1356,-0.1413,-0.142,-0.1426,0,0,0,0,0,0,-0.1882,-0.1806,-0.1781,-0.1762,-0.1722,-0.1656,-0.1651,-0.1619,-0.1583,-0.1579,-0.152,-0.1506,-0.1483,-0.1452,-0.1449,-0.1416,-0.1391,-0.1391,-0.1438,-0.1444,-0.145,-0.1457,-0.1399,0,0,0,0,0,-0.1895,-0.187,-0.1804,-0.1793,-0.1774,-0.1716,-0.1697,-0.1663,-0.1619,-0.1602,-0.1558,-0.1516,-0.1482,-0.1462,-0.1427,-0.141,-0.1394,-0.1407,-0.1413,-0.1417,-0.1417,-0.1404,-0.1408,-0.1362,-0.1362,-0.1362,0,0,-0.1921,-0.1876,-0.1864,-0.1805,-0.1771,-0.1744,-0.1703,-0.1677,-0.1657,-0.1598,-0.1568,-0.1534,-0.1483,-0.146,-0.1448,-0.1433,-0.1426,-0.1419,-0.1424,-0.1421,-0.1406,-0.141,-0.1414,-0.1363,-0.1363,-0.1363,0,0,-0.1955,-0.1919,-0.1905,-0.1871,-0.1818,-0.178,-0.1776,-0.1715,-0.169,-0.1659,-0.1614,-0.1588,-0.1532,-0.1497,-0.1472,-0.1491,-0.1458,-0.1482,-0.151,-0.1498,-0.1501,-0.1504,-0.1509,-0.1512,-0.1482,-0.1482,-0.1482,0,-0.1993,-0.1953,-0.1902,-0.1878,-0.1853,-0.1799,-0.1783,-0.1752,-0.1691,-0.1675,-0.166,-0.1587,-0.1549,-0.1516,-0.1521,-0.1503,-0.1496,-0.1488,-0.1505,-0.1507,-0.1509,-0.1514,-0.1516,-0.1485,-0.1485,-0.1485,-0.1484,0,-0.2002,-0.1975,-0.197,-0.1912,-0.1887,-0.1868,-0.1812,-0.1792,-0.176,-0.1722,-0.169,-0.1643,-0.1597,-0.1587,-0.1555,-0.1549,-0.1541,-0.1517,-0.149,-0.1518,-0.1521,-0.1522,-0.149,-0.1489,-0.1488,-0.1487,0,0,-0.2077,-0.199,-0.1989,-0.1962,-0.1899,-0.1876,-0.1854,-0.1809,-0.1793,-0.1752,-0.1731,-0.1684,-0.166,-0.1632,-0.1595,-0.1585,-0.1601,-0.1561,-0.1559,-0.1569,-0.1588,-0.1607,-0.161,-0.1578,-0.1578,-0.1578,-0.1592,0,-0.21,-0.2058,-0.201,-0.1983,-0.1956,-0.1903,-0.1883,-0.1842,-0.1806,-0.1777,-0.1737,-0.1704,-0.1676,-0.1658,-0.1645,-0.1602,-0.1604,-0.16,-0.1556,-0.1555,-0.157,-0.1611,-0.1631,-0.1646,-0.1593,-0.1593,-0.1593,0,-0.2122,-0.2084,-0.2055,-0.1993,-0.198,-0.1963,-0.1918,-0.1891,-0.1842,-0.1817,-0.1784,-0.1745,-0.1717,-0.1694,-0.1654,-0.1653,-0.1632,-0.1607,-0.1607,-0.16,-0.1576,-0.1605,-0.165,-0.1652,-0.1595,-0.1595,-0.1595,0,-0.2178,-0.2119,-0.2093,-0.2072,-0.2,-0.1989,-0.1958,-0.1909,-0.1884,-0.1844,-0.1827,-0.1785,-0.1761,-0.1728,-0.1678,-0.1666,-0.1642,-0.1615,-0.1619,-0.162,-0.1616,-0.1617,-0.1658,-0.1604,-0.1604,-0.1604,-0.1604,0,-0.2208,-0.2192,-0.2117,-0.2102,-0.2081,-0.2026,-0.2007,-0.1971,-0.1928,-0.1903,-0.1855,-0.1832,-0.1768,-0.1737,-0.1698,-0.1669,-0.1659,-0.1637,-0.1626,-0.1641,-0.1643,-0.1626,-0.1623,-0.1605,-0.1604,-0.1604,-0.1604,0,-0.2267,-0.2216,-0.2185,-0.2119,-0.2102,-0.209,-0.2032,-0.2014,-0.1975,-0.1944,-0.1934,-0.1872,-0.1833,-0.178,-0.1725,-0.1698,-0.1675,-0.1659,-0.1692,-0.1685,-0.1691,-0.1691,-0.1721,-0.1722,-0.167,-0.167,-0.1671,0,-0.2289,-0.2276,-0.2208,-0.2188,-0.2159,-0.2128,-0.2103,-0.2047,-0.2022,-0.1965,-0.1954,-0.1911,-0.1875,-0.1815,-0.1765,-0.1722,-0.1704,-0.1717,-0.1697,-0.1711,-0.1702,-0.1703,-0.1701,-0.1722,-0.1723,-0.1724,-0.1724,0,-0.2334,-0.231,-0.2275,-0.2232,-0.2203,-0.2166,-0.2127,-0.2114,-0.2049,-0.2024,-0.1984,-0.1956,-0.1899,-0.1857,-0.1807,-0.1774,-0.1738,-0.1731,-0.1729,-0.1744,-0.1763,-0.1751,-0.1704,-0.1731,-0.173,-0.173,-0.1729,-0.1729,-0.2374,-0.2359,-0.2309,-0.2272,-0.2236,-0.22,-0.218,-0.2138,-0.2104,-0.2053,-0.2022,-0.1984,-0.1933,-0.1863,-0.1831,-0.1799,-0.1784,-0.1782,-0.1782,-0.1782,-0.1786,-0.1768,-0.179,-0.1789,-0.1789,-0.1789,-0.1789,0,-0.2416,-0.238,-0.2347,-0.2293,-0.2264,-0.2233,-0.2187,-0.2165,-0.2131,-0.2088,-0.2052,-0.2005,-0.1964,-0.191,-0.1864,-0.1849,-0.1831,-0.1839,-0.1839,-0.1831,-0.1802,-0.1808,-0.1854,-0.1854,-0.1854,-0.1854,-0.1854,-0.1854,-0.2434,-0.2406,-0.2375,-0.2328,-0.2292,-0.2254,-0.223,-0.2196,-0.2161,-0.2111,-0.2077,-0.2042,-0.1993,-0.1943,-0.1904,-0.1888,-0.1873,-0.1886,-0.1866,-0.1839,-0.1834,-0.1828,-0.1833,-0.1883,-0.1883,-0.1897,-0.1897,-0.1898]},{"header":{"parameterUnit":"m.s-1","parameterCategory":1,"la1":30.2991,"la2":30.254,"lo1":-89.0895,"lo2":-89.0444,"dy":0.0017,"dx":0.0017,"nx":28,"ny":28,"refTime":"2024-08-20T09:00:00:Z","depth":0,"parameterNumber":3,"parameterNumberName":"V-component_of_WINDS"},"data":[0,0,0,0,0,0,0,0,0,0,0,0,0,0,0,0,0,0,0,0,0,0,0,0,0,0,0,0,0,0,0,0,0,0,0,0,0,0,0,0,0,0,0,0,0,0,0,0,0,0,0,0,0,0,0,0,0,0,-0.733,-0.7331,0,-0.7512,-0.7514,-0.7516,-0.759,-0.7589,-0.7589,-0.7588,-0.7777,-0.7783,-0.7788,0,0,0,0,0,0,0,0,0,0,0,0,0,-0.7046,-0.7051,-0.7329,-0.7332,-0.7334,-0.7511,-0.7514,-0.7516,-0.759,-0.7589,-0.7589,-0.7588,-0.7776,-0.7782,-0.7789,0,0,0,0,0,0,0,0,0,0,0,0,0,-0.7193,-0.7052,-0.7329,-0.7392,-0.7399,-0.7511,-0.7514,-0.7517,-0.759,-0.7589,-0.7588,-0.7588,-0.7773,-0.7781,-0.7789,-0.7853,0,0,-0.7814,-0.7818,0,0,0,0,0,0,0,0,-0.7184,-0.7203,-0.738,-0.7388,-0.7396,-0.7527,-0.7483,-0.763,-0.759,-0.7517,-0.7588,-0.7588,-0.7695,-0.7709,-0.7745,-0.7862,-0.787,-0.7815,-0.782,-0.7824,-0.7826,0,0,0,0,0,0,0,-0.7174,-0.7196,-0.7402,-0.7383,-0.7393,-0.7411,-0.7431,-0.7511,-0.7608,-0.7524,-0.753,-0.755,-0.7699,-0.7737,-0.775,-0.7873,-0.7815,-0.7822,-0.7827,-0.783,-0.8049,-0.805,0,0,0,0,0,0,-0.7153,-0.7187,-0.7396,-0.7407,-0.7286,-0.7417,-0.7439,-0.7486,-0.7607,-0.7625,-0.755,-0.7553,-0.7723,-0.774,-0.7757,-0.7838,-0.7823,-0.7831,-0.7836,-0.8048,-0.8049,-0.805,0,0,0,0,0,0,-0.7147,-0.7171,-0.7388,-0.7298,-0.7328,-0.7422,-0.7474,-0.749,-0.7528,-0.7627,-0.7645,-0.7571,-0.7724,-0.7746,-0.7828,-0.7846,-0.7835,-0.7842,-0.8047,-0.8048,-0.8049,-0.8002,0,0,0,0,0,0,-0.7138,-0.7168,-0.7193,-0.7298,-0.7332,-0.7456,-0.7475,-0.7494,-0.7541,-0.7546,-0.7651,-0.7668,-0.7725,-0.7815,-0.7836,-0.7857,-0.7849,-0.8046,-0.8047,-0.8049,-0.8002,-0.8001,-0.8001,0,0,0,0,0,-0.7128,-0.7174,-0.7194,-0.7219,-0.7365,-0.7457,-0.7476,-0.7539,-0.7543,-0.7568,-0.7632,-0.7665,-0.784,-0.7823,-0.7847,-0.7871,-0.8045,-0.8047,-0.8049,-0.8003,-0.8002,-0.8001,0,0,0,0,0,0,-0.707,-0.7189,-0.7213,-0.7294,-0.7364,-0.7469,-0.7504,-0.7537,-0.7609,-0.761,-0.7686,-0.771,-0.7785,-0.7837,-0.7815,-0.7938,-0.7945,-0.7952,-0.7902,-0.7902,-0.7901,-0.7887,-0.7855,0,0,0,0,0,-0.7066,-0.713,-0.7231,-0.7292,-0.7326,-0.7408,-0.7451,-0.7493,-0.757,-0.7601,-0.767,-0.7744,-0.7816,-0.7861,-0.7933,-0.8009,-0.8033,-0.8038,-0.8037,-0.8036,-0.8041,-0.8084,-0.8087,-0.8057,-0.8057,-0.8057,0,0,-0.7059,-0.7132,-0.7168,-0.7282,-0.7342,-0.7407,-0.7433,-0.7501,-0.755,-0.7611,-0.7693,-0.7746,-0.7833,-0.7913,-0.7951,-0.7958,-0.8054,-0.8038,-0.8036,-0.8043,-0.8087,-0.8089,-0.8092,-0.8058,-0.8058,-0.8058,0,0,-0.7081,-0.7142,-0.72,-0.7258,-0.7348,-0.7402,-0.7415,-0.7515,-0.7552,-0.7635,-0.7682,-0.7741,-0.7863,-0.7923,-0.797,-0.8011,-0.8044,-0.8032,-0.8028,-0.8069,-0.8072,-0.8074,-0.8089,-0.8093,-0.8037,-0.8036,-0.8036,0,-0.7062,-0.7161,-0.7225,-0.729,-0.7338,-0.7395,-0.7454,-0.7508,-0.7616,-0.7649,-0.7654,-0.7807,-0.787,-0.7964,-0.7973,-0.8009,-0.8027,-0.8021,-0.8066,-0.8069,-0.8073,-0.8087,-0.8092,-0.8034,-0.8035,-0.8035,-0.8035,0,-0.7132,-0.72,-0.7236,-0.7337,-0.739,-0.7451,-0.7525,-0.7571,-0.7608,-0.7661,-0.7744,-0.7821,-0.7908,-0.7933,-0.7971,-0.8032,-0.8033,-0.8051,-0.806,-0.8072,-0.8087,-0.8093,-0.8032,-0.8032,-0.8033,-0.8033,0,0,-0.7124,-0.7259,-0.7271,-0.7317,-0.7419,-0.7473,-0.7536,-0.762,-0.7657,-0.773,-0.7785,-0.7885,-0.7902,-0.7955,-0.7999,-0.8035,-0.8062,-0.8049,-0.8052,-0.8049,-0.8133,-0.8119,-0.8125,-0.8084,-0.8085,-0.8086,-0.8126,0,-0.7159,-0.7274,-0.7333,-0.7423,-0.7486,-0.754,-0.7595,-0.7663,-0.7714,-0.7775,-0.7832,-0.7902,-0.7919,-0.7951,-0.7989,-0.8051,-0.808,-0.8049,-0.8136,-0.8139,-0.8113,-0.8133,-0.8119,-0.8152,-0.8132,-0.8133,-0.8134,0,-0.7215,-0.7285,-0.7381,-0.7474,-0.7502,-0.7551,-0.7632,-0.769,-0.7768,-0.7802,-0.7859,-0.7903,-0.7971,-0.7974,-0.807,-0.8047,-0.8086,-0.8122,-0.8125,-0.8136,-0.8137,-0.8144,-0.8164,-0.8169,-0.8144,-0.8143,-0.8142,0,-0.7199,-0.7317,-0.7389,-0.7427,-0.7538,-0.757,-0.7618,-0.7695,-0.7741,-0.7813,-0.7843,-0.7921,-0.7964,-0.8024,-0.8087,-0.8084,-0.8176,-0.8185,-0.8207,-0.8206,-0.8225,-0.8223,-0.8252,-0.825,-0.8249,-0.8249,-0.8249,0,-0.7232,-0.7288,-0.7383,-0.7428,-0.7492,-0.7559,-0.7621,-0.7673,-0.7741,-0.7797,-0.7848,-0.7899,-0.7979,-0.804,-0.809,-0.8161,-0.8181,-0.8211,-0.8223,-0.8206,-0.8202,-0.8234,-0.8233,-0.8251,-0.825,-0.825,-0.825,0,-0.7225,-0.7291,-0.7373,-0.747,-0.7495,-0.7538,-0.7622,-0.7667,-0.7719,-0.7789,-0.7809,-0.7892,-0.7966,-0.8035,-0.8134,-0.8168,-0.824,-0.8256,-0.8213,-0.822,-0.8238,-0.8235,-0.8289,-0.8299,-0.8288,-0.8288,-0.8288,0,-0.7242,-0.7286,-0.7387,-0.7427,-0.7473,-0.7538,-0.7585,-0.7652,-0.7699,-0.779,-0.7824,-0.7901,-0.7967,-0.8084,-0.8153,-0.8229,-0.8248,-0.8261,-0.826,-0.824,-0.8248,-0.8244,-0.8249,-0.826,-0.826,-0.826,-0.8259,0,-0.7265,-0.7294,-0.736,-0.7436,-0.749,-0.7553,-0.7619,-0.7649,-0.7728,-0.7778,-0.7854,-0.7905,-0.8005,-0.8082,-0.8165,-0.8215,-0.825,-0.8259,-0.8268,-0.8252,-0.8225,-0.8239,-0.821,-0.8258,-0.8258,-0.8258,-0.8258,-0.8258,-0.7271,-0.7312,-0.7389,-0.7459,-0.7515,-0.7574,-0.7621,-0.7678,-0.7742,-0.7828,-0.7864,-0.7941,-0.8017,-0.8132,-0.8181,-0.8242,-0.825,-0.8263,-0.8267,-0.8269,-0.8266,-0.8214,-0.8258,-0.8258,-0.8258,-0.8258,-0.8258,0,-0.7296,-0.7347,-0.7411,-0.75,-0.7555,-0.7582,-0.7655,-0.77,-0.7766,-0.7833,-0.7896,-0.7983,-0.8057,-0.8131,-0.8209,-0.8243,-0.8262,-0.8262,-0.826,-0.8271,-0.8255,-0.8239,-0.8245,-0.8245,-0.8245,-0.8245,-0.8245,-0.8245,-0.7316,-0.7387,-0.7425,-0.7524,-0.7575,-0.765,-0.7689,-0.7744,-0.7798,-0.7891,-0.7953,-0.8,-0.807,-0.8153,-0.8222,-0.8242,-0.8268,-0.8264,-0.8288,-0.8272,-0.8272,-0.8273,-0.8258,-0.8269,-0.8269,-0.83,-0.83,-0.83]}]]